period_start,C,m1,H,J0,J1,J2,J3,J4,J5,JA,JB,JC,JD,JJ,JK,JN,#
2016-06-12 00:03:19,0.01,1.19,0.00,26.01,29.83,32.72,14.40,45.77,1016.26,2024.86,3058.27,2797.98,3160.85,600.31,590.06,40.36,0000 0000 0000 0000 000000
2016-06-12 00:08:21,0.01,1.19,0.00,26.01,29.82,32.68,14.31,45.52,1016.57,2024.95,3058.08,2797.97,3160.72,600.23,590.20,40.42,0000 0000 0000 0000 000000
2016-06-12 00:13:22,-0.00,1.19,0.00,26.01,29.82,32.68,14.19,45.46,1016.62,2024.98,3058.13,2797.98,3160.70,599.63,589.69,40.47,0000 0000 0000 0000 000000
2016-06-12 00:18:23,-0.00,1.19,0.00,26.01,29.80,32.67,14.36,45.78,1016.62,2024.97,3058.44,2797.99,3160.85,600.44,590.47,40.52,0000 0000 0000 0000 000000
2016-06-12 00:23:25,0.01,1.19,0.00,26.00,29.80,32.62,14.31,45.52,1016.62,2024.97,3058.02,2797.97,3160.39,599.91,590.04,40.57,0000 0000 0000 0000 000000
2016-06-12 00:28:26,0.00,1.19,0.00,26.00,29.80,32.64,14.34,45.63,1016.63,2024.98,3057.99,2797.92,3160.09,600.09,590.15,40.62,0000 0000 0000 0000 000000
2016-06-12 00:33:27,0.01,1.19,0.00,26.02,29.79,32.62,14.25,45.53,1016.63,2024.97,3057.96,2797.70,3160.01,599.63,589.73,40.67,0000 0000 0000 0000 000000
2016-06-12 00:38:29,0.01,1.19,0.00,26.02,29.77,32.61,14.31,45.79,1016.62,2024.98,3057.71,2797.31,3160.00,600.10,590.04,40.72,0000 0000 0000 0000 000000
2016-06-12 00:43:30,0.00,1.19,0.00,26.02,29.77,32.63,14.38,45.91,1016.62,2024.98,3057.76,2797.19,3160.00,600.26,590.28,40.77,0000 0000 0000 0000 000000
2016-06-12 00:48:31,-0.00,1.19,0.00,26.02,29.77,32.60,14.22,45.52,1016.62,2024.99,3057.74,2797.08,3160.00,599.84,589.92,40.82,0000 0000 0000 0000 000000
2016-06-12 00:53:33,0.01,1.19,0.00,26.01,29.77,32.59,14.32,45.65,1016.62,2024.99,3057.11,2797.02,3159.97,600.13,590.18,40.87,0000 0000 0000 0000 000000
2016-06-12 00:58:34,0.00,1.19,0.00,26.00,29.77,32.58,14.32,45.61,1016.63,2024.99,3056.97,2797.00,3159.79,600.07,590.07,40.92,0000 0000 0000 0000 000000
2016-06-12 01:03:35,0.00,1.19,0.00,26.00,29.75,32.60,14.39,45.84,1016.63,2024.99,3056.92,2797.00,3159.50,600.27,590.25,40.97,0000 0000 0000 0000 000000
2016-06-12 01:08:36,0.01,1.19,0.00,26.00,29.75,32.59,14.34,45.72,1016.62,2024.99,3056.59,2797.00,3159.32,600.10,590.18,41.02,0000 0000 0000 0000 000000
2016-06-12 01:13:37,0.01,1.19,0.00,25.99,29.74,32.58,14.47,45.76,1016.56,2024.99,3056.17,2797.00,3159.24,600.41,590.44,41.07,0000 0000 0000 0000 000000
2016-06-12 01:18:39,0.01,1.19,0.00,26.00,29.72,32.59,14.30,45.59,1016.49,2025.01,3056.01,2797.00,3159.11,599.97,589.96,41.12,0000 0000 0000 0000 000000
2016-06-12 01:23:40,0.00,1.19,0.00,25.99,29.72,32.57,14.34,45.63,1016.53,2025.03,3056.00,2797.00,3159.04,599.77,589.81,41.17,0000 0000 0000 0000 000000
2016-06-12 01:28:41,0.00,1.19,0.00,25.98,29.70,32.57,14.29,45.48,1016.41,2025.02,3056.00,2796.99,3159.01,600.12,590.10,41.22,0000 0000 0000 0000 000000
2016-06-12 01:33:42,0.00,1.19,0.00,25.99,29.70,32.57,14.17,45.10,1016.15,2025.07,3056.00,2796.99,3159.03,599.86,589.62,41.27,0000 0000 0000 0000 000000
2016-06-12 01:38:44,0.03,1.20,0.00,25.98,29.67,32.53,14.37,45.86,1016.15,2025.30,3055.98,2796.99,3159.01,600.03,589.82,41.33,0000 0000 0000 0000 000000
2016-06-12 01:43:45,0.03,1.20,0.00,25.97,29.67,32.52,14.38,45.69,1016.17,2025.64,3055.60,2796.99,3159.01,600.47,590.32,41.38,0000 0000 0000 0000 000000
2016-06-12 01:48:46,0.03,1.20,0.00,25.97,29.65,32.46,14.34,45.71,1016.48,2025.91,3055.08,2796.99,3159.00,600.39,590.43,41.43,0000 0000 0000 0000 000000
2016-06-12 01:53:48,0.00,1.20,0.00,25.97,29.65,32.50,14.29,45.33,1016.61,2025.97,3055.03,2796.98,3159.00,599.96,590.13,41.48,0000 0000 0000 0000 000000
2016-06-12 01:58:49,0.00,1.20,0.00,25.97,29.62,32.46,14.28,45.45,1016.62,2025.98,3055.00,2796.97,3159.00,599.81,589.94,41.53,0000 0000 0000 0000 000000
2016-06-12 02:03:51,-0.00,1.20,0.00,25.97,29.62,32.43,14.29,45.49,1016.61,2025.98,3055.00,2796.98,3158.99,600.07,590.22,41.58,0000 0000 0000 0000 000000
2016-06-12 02:08:52,0.00,1.20,0.00,25.96,29.61,32.48,14.33,45.61,1016.62,2025.99,3054.96,2796.96,3158.99,600.04,590.14,41.63,0000 0000 0000 0000 000000
2016-06-12 02:13:53,0.00,1.20,0.00,25.96,29.60,32.44,14.23,45.48,1016.62,2025.99,3054.94,2796.96,3158.98,600.07,590.21,41.68,0000 0000 0000 0000 000000
2016-06-12 02:18:54,0.00,1.20,0.00,25.96,29.60,32.36,14.31,45.48,1016.60,2025.99,3054.86,2796.97,3158.98,600.06,590.17,41.73,0000 0000 0000 0000 000000
2016-06-12 02:23:55,0.01,1.20,0.00,25.94,29.58,32.43,14.36,45.69,1016.57,2025.99,3054.19,2796.91,3158.92,600.15,590.29,41.78,0000 0000 0000 0000 000000
2016-06-12 02:28:56,0.01,1.20,0.00,25.94,29.57,32.40,14.40,45.60,1016.55,2025.99,3054.03,2796.88,3158.68,600.37,590.47,41.83,0000 0000 0000 0000 000000
2016-06-12 02:33:58,0.00,1.20,0.00,25.93,29.56,32.42,14.25,45.55,1016.37,2026.00,3054.00,2796.78,3158.38,599.94,589.86,41.88,0000 0000 0000 0000 000000
2016-06-12 02:38:59,0.01,1.20,0.00,25.93,29.55,32.37,14.26,45.45,1016.34,2026.03,3053.92,2796.65,3158.13,599.89,590.00,41.93,0000 0000 0000 0000 000000
2016-06-12 02:44:00,0.02,1.20,0.00,25.93,29.54,32.34,14.32,45.64,1016.19,2026.15,3053.60,2796.45,3158.03,599.96,589.83,41.98,0000 0000 0000 0000 000000
2016-06-12 02:49:01,0.05,1.21,0.00,25.92,29.52,32.29,14.35,45.77,1016.15,2026.51,3053.11,2796.22,3158.01,600.26,590.16,42.03,0000 0000 0000 0000 000000
2016-06-12 02:54:03,0.02,1.21,0.00,25.91,29.52,32.30,14.27,45.38,1016.14,2026.64,3053.01,2796.07,3158.00,600.05,590.03,42.08,0000 0000 0000 0000 000000
2016-06-12 02:59:04,0.01,1.21,0.00,25.89,29.50,32.30,14.29,45.31,1016.13,2026.65,3052.92,2796.01,3157.98,599.62,589.53,42.13,0000 0000 0000 0000 000000
2016-06-12 03:04:05,0.02,1.21,0.00,25.90,29.50,32.26,14.28,45.38,1016.13,2026.90,3052.72,2796.01,3157.98,599.68,589.66,42.18,0000 0000 0000 0000 000000
2016-06-12 03:09:07,0.02,1.21,0.00,25.88,29.47,32.25,14.35,45.52,1016.13,2026.96,3052.38,2796.00,3157.95,600.29,590.31,42.23,0000 0000 0000 0000 000000
2016-06-12 03:14:08,0.00,1.21,0.00,25.87,29.46,32.19,14.23,45.36,1016.13,2026.99,3052.06,2796.01,3157.92,599.59,589.58,42.28,0000 0000 0000 0000 000000
2016-06-12 03:19:09,0.00,1.21,0.00,25.86,29.45,32.18,14.33,45.63,1016.13,2026.99,3052.01,2796.00,3157.78,599.81,589.87,42.34,0000 0000 0000 0000 000000
2016-06-12 03:24:10,0.00,1.21,0.00,25.84,29.43,32.17,14.20,45.24,1016.13,2026.99,3051.98,2796.00,3157.54,599.92,590.00,42.39,0000 0000 0000 0000 000000
2016-06-12 03:29:12,-0.00,1.21,0.00,25.84,29.42,32.15,14.36,45.63,1016.14,2026.99,3051.94,2796.00,3157.51,599.89,590.02,42.44,0000 0000 0000 0000 000000
2016-06-12 03:34:12,0.01,1.21,0.00,25.82,29.40,32.08,14.35,45.37,1016.13,2027.00,3051.79,2796.00,3157.18,600.09,590.15,42.49,0000 0000 0000 0000 000000
2016-06-12 03:39:14,0.01,1.21,0.00,25.82,29.39,32.07,14.33,45.61,1016.13,2027.01,3051.53,2796.00,3157.11,600.14,590.25,42.54,0000 0000 0000 0000 000000
2016-06-12 03:44:15,0.01,1.21,0.00,25.81,29.37,32.10,14.25,45.35,1016.13,2027.06,3051.47,2796.00,3157.11,599.93,590.09,42.59,0000 0000 0000 0000 000000
2016-06-12 03:49:16,0.01,1.21,0.00,25.80,29.35,32.07,14.27,45.45,1016.13,2027.08,3051.08,2796.00,3157.02,600.11,590.23,42.64,0000 0000 0000 0000 000000
2016-06-12 03:54:18,0.01,1.21,0.00,25.80,29.35,32.05,14.25,45.38,1016.13,2027.19,3051.08,2796.00,3157.02,599.96,590.12,42.69,0000 0000 0000 0000 000000
2016-06-12 03:59:19,0.03,1.21,0.00,25.79,29.32,32.04,14.24,45.33,1016.13,2027.59,3051.07,2796.00,3157.04,599.97,590.02,42.74,0000 0000 0000 0000 000000
2016-06-12 04:04:20,0.01,1.21,0.00,25.79,29.32,32.02,14.28,45.46,1016.13,2027.78,3051.02,2796.00,3157.02,600.17,590.36,42.79,0000 0000 0000 0000 000000
2016-06-12 04:09:22,0.01,1.22,0.00,25.79,29.30,32.02,14.30,45.40,1016.13,2027.92,3051.00,2796.00,3157.00,600.19,590.41,42.84,0000 0000 0000 0000 000000
2016-06-12 04:14:23,0.01,1.22,0.00,25.77,29.30,31.99,14.29,45.52,1016.13,2027.95,3050.90,2796.00,3157.00,600.21,590.34,42.89,0000 0000 0000 0000 000000
2016-06-12 04:19:24,0.01,1.22,0.00,25.77,29.29,31.97,14.28,45.40,1016.14,2027.97,3050.56,2796.00,3156.99,600.09,590.42,42.94,0000 0000 0000 0000 000000
2016-06-12 04:24:26,-0.00,1.22,0.00,25.77,29.27,31.99,14.22,45.38,1016.13,2027.98,3050.69,2796.00,3156.99,599.58,589.81,42.99,0000 0000 0000 0000 000000
2016-06-12 04:29:27,-0.00,1.22,0.00,25.75,29.27,31.98,14.31,45.42,1016.14,2027.99,3050.89,2796.00,3156.99,599.89,590.16,43.04,0000 0000 0000 0000 000000
2016-06-12 04:34:28,0.00,1.22,0.00,25.74,29.25,31.96,14.34,45.53,1016.24,2027.99,3050.94,2796.00,3156.99,600.11,590.38,43.09,0000 0000 0000 0000 000000
2016-06-12 04:39:29,0.01,1.22,0.00,25.73,29.25,31.93,14.31,45.47,1016.44,2027.99,3050.59,2796.00,3156.98,599.90,590.50,43.14,0000 0000 0000 0000 000000
2016-06-12 04:44:30,-0.00,1.22,0.00,25.72,29.24,31.92,14.35,45.52,1016.50,2027.99,3050.55,2795.99,3156.98,600.17,590.68,43.19,0000 0000 0000 0000 000000
2016-06-12 04:49:32,0.01,1.22,0.00,25.71,29.22,31.92,14.25,45.37,1016.45,2027.99,3050.40,2795.99,3156.98,599.59,590.17,43.24,0000 0000 0000 0000 000000
2016-06-12 04:54:33,0.00,1.22,0.00,25.70,29.22,31.90,14.33,45.52,1016.39,2027.99,3050.32,2795.99,3156.98,600.46,590.91,43.30,0000 0000 0000 0000 000000
2016-06-12 04:59:34,0.00,1.22,0.00,25.70,29.21,31.89,14.39,45.60,1016.25,2027.99,3050.04,2795.99,3156.95,600.41,590.85,43.35,0000 0000 0000 0000 000000
2016-06-12 05:04:36,0.00,1.22,0.00,25.67,29.20,31.86,14.35,45.51,1016.15,2027.99,3050.00,2795.98,3156.75,600.43,590.86,43.40,0000 0000 0000 0000 000000
2016-06-12 05:09:37,0.00,1.22,0.00,25.67,29.19,31.87,14.24,45.43,1016.13,2028.00,3049.97,2795.98,3156.68,600.01,590.54,43.45,0000 0000 0000 0000 000000
2016-06-12 05:14:39,0.00,1.22,0.00,25.67,29.17,31.87,14.26,45.56,1016.13,2028.00,3049.90,2795.98,3156.37,599.66,590.02,43.50,0000 0000 0000 0000 000000
2016-06-12 05:19:40,0.01,1.22,0.00,25.66,29.17,31.85,14.30,45.52,1016.10,2028.01,3049.61,2795.95,3156.08,599.97,590.39,43.55,0000 0000 0000 0000 000000
2016-06-12 05:24:42,0.00,1.22,0.00,25.65,29.15,31.86,14.29,45.59,1015.69,2028.01,3049.25,2795.93,3156.05,600.01,590.35,43.60,0000 0000 0000 0000 000000
2016-06-12 05:29:43,0.01,1.22,0.00,25.64,29.15,31.83,14.35,45.63,1015.94,2028.01,3049.01,2795.68,3156.01,600.15,590.47,43.65,0000 0000 0000 0000 000000
2016-06-12 05:34:44,0.00,1.22,0.00,25.64,29.14,31.83,14.27,45.43,1015.66,2028.03,3049.00,2795.57,3156.00,600.04,590.32,43.70,0000 0000 0000 0000 000000
2016-06-12 05:39:46,-0.00,1.22,0.00,25.62,29.12,31.83,14.28,45.46,1015.64,2028.09,3049.00,2795.72,3156.00,600.14,590.27,43.75,0000 0000 0000 0000 000000
2016-06-12 05:44:47,0.01,1.22,0.00,25.62,29.12,31.82,14.20,45.13,1015.67,2028.13,3048.92,2795.48,3156.00,599.56,589.89,43.80,0000 0000 0000 0000 000000
2016-06-12 05:49:48,0.03,1.22,0.00,25.61,29.10,31.81,14.30,45.43,1015.65,2028.31,3048.79,2795.35,3155.99,600.15,590.36,43.85,0000 0000 0000 0000 000000
2016-06-12 05:54:49,0.01,1.22,0.00,25.60,29.10,31.81,14.40,45.69,1015.75,2028.49,3048.69,2795.31,3155.98,600.02,590.28,43.90,0000 0000 0000 0000 000000
2016-06-12 05:59:51,0.01,1.22,0.00,25.59,29.10,31.79,14.36,45.59,1016.13,2028.59,3048.55,2795.27,3155.97,600.57,591.11,43.95,0000 0000 0000 0000 000000
2016-06-12 06:04:52,0.03,1.22,0.00,25.57,29.07,31.79,14.36,45.67,1016.14,2028.83,3048.25,2795.35,3155.98,600.09,590.79,44.00,0000 0000 0000 0000 000000
2016-06-12 06:09:53,0.00,1.23,0.00,25.57,29.07,31.78,14.31,45.63,1016.09,2028.90,3048.17,2795.28,3155.94,599.71,590.27,44.05,0000 0000 0000 0000 000000
2016-06-12 06:14:54,-0.00,1.22,0.00,25.57,29.06,31.76,14.35,45.73,1016.07,2028.96,3048.29,2795.56,3155.98,600.25,590.71,44.10,0000 0000 0000 0000 000000
2016-06-12 06:19:56,0.01,1.23,0.00,25.55,29.05,31.76,14.26,45.43,1015.71,2028.98,3048.08,2795.53,3155.97,599.85,590.28,44.15,0000 0000 0000 0000 000000
2016-06-12 06:24:57,-0.01,1.23,0.00,25.55,29.05,31.75,14.29,45.26,1015.67,2028.98,3048.05,2795.73,3155.97,599.96,590.37,44.21,0000 0000 0000 0000 000000
2016-06-12 06:29:58,0.01,1.23,0.00,25.52,29.03,31.75,14.23,45.30,1015.66,2028.98,3048.01,2795.52,3155.85,600.04,590.44,44.26,0000 0000 0000 0000 000000
2016-06-12 06:35:00,0.01,1.23,0.00,25.50,29.02,31.76,14.25,45.55,1015.66,2028.98,3048.00,2795.27,3155.57,599.80,590.28,44.31,0000 0000 0000 0000 000000
2016-06-12 06:40:01,0.00,1.23,0.00,25.50,29.01,31.73,14.30,45.43,1015.65,2028.99,3047.99,2795.31,3155.56,599.83,590.25,44.36,0000 0000 0000 0000 000000
2016-06-12 06:45:02,-0.00,1.23,0.00,25.50,29.00,31.72,14.38,45.54,1015.66,2028.99,3047.99,2795.31,3155.36,600.20,590.41,44.41,0000 0000 0000 0000 000000
2016-06-12 06:50:03,-0.01,1.23,0.00,25.48,29.00,31.70,14.36,45.56,1015.64,2028.99,3047.99,2795.50,3155.50,599.89,590.39,44.46,0000 0000 0000 0000 000000
2016-06-12 06:55:05,-0.00,1.23,0.00,25.46,28.98,31.69,14.23,45.45,1015.65,2028.99,3047.96,2795.61,3155.57,599.85,590.43,44.51,0000 0000 0000 0000 000000
2016-06-12 07:00:06,0.01,1.23,0.00,25.45,28.97,31.69,14.31,45.58,1015.69,2028.99,3047.96,2795.70,3155.42,600.07,590.70,44.56,0000 0000 0000 0000 000000
2016-06-12 07:05:07,0.01,1.23,0.00,25.43,28.96,31.70,14.30,45.55,1015.66,2029.00,3047.89,2795.50,3155.18,599.63,590.34,44.61,0000 0000 0000 0000 000000
2016-06-12 07:10:08,0.02,1.23,0.00,25.42,28.95,31.68,14.33,45.56,1015.66,2029.00,3047.50,2795.32,3155.06,600.77,591.44,44.66,0000 0000 0000 0000 000000
2016-06-12 07:15:09,0.01,1.23,0.00,25.41,28.95,31.66,14.35,45.56,1015.66,2029.00,3047.33,2795.35,3155.05,599.74,590.57,44.71,0000 0000 0000 0000 000000
2016-06-12 07:20:10,-0.01,1.23,0.00,25.39,28.93,31.66,14.37,45.54,1015.69,2029.02,3047.29,2795.52,3155.03,600.22,590.92,44.76,0000 0000 0000 0000 000000
2016-06-12 07:25:11,0.01,1.23,0.00,25.38,28.92,31.65,14.29,45.46,1015.73,2029.06,3047.22,2795.69,3155.06,600.14,590.91,44.81,0000 0000 0000 0000 000000
2016-06-12 07:30:12,-0.01,1.23,0.00,25.37,28.91,31.66,14.31,45.38,1015.72,2029.09,3047.30,2795.87,3155.10,599.98,590.70,44.86,0000 0000 0000 0000 000000
2016-06-12 07:35:14,0.00,1.23,0.00,25.35,28.90,31.65,14.25,45.48,1015.65,2029.09,3047.21,2795.92,3155.07,600.02,590.86,44.91,0000 0000 0000 0000 000000
2016-06-12 07:40:15,0.01,1.23,0.00,25.34,28.90,31.63,14.23,45.44,1015.64,2029.09,3047.06,2795.80,3155.04,599.48,590.29,44.96,0000 0000 0000 0000 000000
2016-06-12 07:45:16,-0.00,1.23,0.00,25.31,28.88,31.61,14.28,45.64,1015.64,2029.15,3047.01,2795.85,3155.02,600.00,590.76,45.01,0000 0000 0000 0000 000000
2016-06-12 07:50:17,0.01,1.23,0.00,25.30,28.87,31.62,14.26,45.30,1015.65,2029.20,3047.00,2795.74,3155.00,599.74,590.68,45.06,0000 0000 0000 0000 000000
2016-06-12 07:55:18,0.00,1.23,0.00,25.29,28.87,31.61,14.34,45.86,1015.66,2029.32,3047.00,2795.77,3155.00,599.69,590.53,45.11,0000 0000 0000 0000 000000
2016-06-12 08:00:20,0.04,1.23,0.00,25.29,28.85,31.59,14.22,45.44,1015.66,2029.60,3046.99,2795.89,3155.01,599.08,590.00,45.16,0000 0000 0000 0000 000000
2016-06-12 08:05:21,0.02,1.23,0.00,25.27,28.85,31.58,14.34,45.39,1015.65,2029.84,3046.99,2795.91,3155.00,600.10,590.93,45.21,0000 0000 0000 0000 000000
2016-06-12 08:10:23,0.00,1.23,0.00,25.27,28.85,31.57,14.29,45.67,1015.64,2029.89,3046.97,2795.90,3155.00,600.02,590.95,45.27,0000 0000 0000 0000 000000
2016-06-12 08:15:24,0.00,1.23,0.00,25.27,28.84,31.55,14.20,45.63,1015.64,2029.93,3046.94,2795.88,3155.00,599.88,590.86,45.32,0000 0000 0000 0000 000000
2016-06-12 08:20:25,0.02,1.23,0.00,25.26,28.82,31.53,14.29,45.61,1015.64,2029.94,3046.38,2795.62,3154.99,599.81,590.76,45.37,0000 0000 0000 0000 000000
2016-06-12 08:25:26,0.00,1.23,0.00,25.25,28.82,31.55,14.31,45.43,1015.58,2029.96,3046.09,2795.69,3154.99,600.18,591.34,45.42,0000 0000 0000 0000 000000
2016-06-12 08:30:27,0.00,1.23,0.00,25.26,28.82,31.53,14.28,45.70,1015.61,2029.98,3046.01,2795.49,3154.98,599.89,590.89,45.47,0000 0000 0000 0000 000000
2016-06-12 08:35:29,0.01,1.23,0.00,25.25,28.82,31.54,14.32,45.45,1015.53,2029.98,3045.82,2795.39,3154.76,600.12,591.02,45.52,0000 0000 0000 0000 000000
2016-06-12 08:40:30,0.03,1.24,0.00,25.27,28.82,31.51,14.31,45.48,1015.23,2029.97,3045.03,2794.96,3154.01,599.60,590.30,45.57,0000 0000 0000 0000 000000
2016-06-12 08:45:31,0.01,1.24,0.00,25.25,28.81,31.53,14.22,45.56,1015.29,2029.98,3044.92,2794.78,3153.82,599.72,590.48,45.62,0000 0000 0000 0000 000000
2016-06-12 08:50:32,0.00,1.24,0.00,25.23,28.80,31.53,14.30,45.42,1015.30,2029.99,3044.83,2794.74,3153.79,599.86,590.52,45.67,0000 0000 0000 0000 000000
2016-06-12 08:55:33,0.02,1.24,0.00,25.22,28.80,31.53,14.40,45.57,1015.22,2029.98,3044.29,2794.55,3153.38,600.30,591.11,45.72,0000 0000 0000 0000 000000
2016-06-12 09:00:35,0.01,1.24,0.00,25.23,28.80,31.53,14.27,45.37,1015.28,2029.99,3044.12,2794.42,3153.18,599.67,590.52,45.77,0000 0000 0000 0000 000000
2016-06-12 09:05:35,0.01,1.24,0.00,25.21,28.80,31.55,14.31,45.43,1015.41,2029.99,3044.01,2794.14,3153.03,599.90,590.81,45.82,0000 0000 0000 0000 000000
2016-06-12 09:10:37,-0.00,1.24,0.00,25.20,28.80,31.54,14.32,45.58,1015.18,2029.99,3044.00,2794.08,3153.02,600.21,590.88,45.87,0000 0000 0000 0000 000000
2016-06-12 09:15:38,-0.00,1.24,0.00,25.18,28.80,31.54,14.40,45.77,1015.07,2029.99,3044.00,2794.11,3153.02,600.63,591.37,45.92,0000 0000 0000 0000 000000
2016-06-12 09:20:39,0.00,1.24,0.00,25.17,28.80,31.53,14.31,45.74,1014.77,2029.98,3044.00,2794.05,3153.00,599.77,590.34,45.97,0000 0000 0000 0000 000000
2016-06-12 09:25:41,0.00,1.24,0.00,25.17,28.80,31.52,14.25,45.43,1014.76,2029.98,3043.99,2794.01,3153.00,599.77,590.35,46.02,0000 0000 0000 0000 000000
2016-06-12 09:30:42,0.00,1.24,0.00,25.15,28.80,31.53,14.29,45.62,1014.66,2029.99,3043.99,2794.04,3153.00,599.65,590.22,46.07,0000 0000 0000 0000 000000
2016-06-12 09:35:43,0.00,1.24,0.00,25.14,28.80,31.53,14.36,45.75,1014.61,2029.99,3043.99,2794.02,3153.00,599.97,590.58,46.12,0000 0000 0000 0000 000000
2016-06-12 09:40:45,0.00,1.24,0.00,25.13,28.80,31.52,14.21,45.42,1014.63,2029.98,3043.97,2794.01,3153.00,599.46,590.09,46.17,0000 0000 0000 0000 000000
2016-06-12 09:45:46,0.00,1.24,0.00,25.12,28.80,31.52,14.38,45.72,1014.75,2029.98,3043.92,2794.00,3153.00,599.93,590.60,46.23,0000 0000 0000 0000 000000
2016-06-12 09:50:47,-0.00,1.24,0.00,25.11,28.80,31.53,14.37,45.80,1015.14,2029.98,3043.82,2794.01,3152.98,600.03,591.04,46.28,0000 0000 0000 0000 000000
2016-06-12 09:55:49,0.00,1.24,0.00,25.11,28.80,31.52,14.34,45.50,1015.09,2029.99,3043.52,2794.00,3152.98,599.84,590.75,46.33,0000 0000 0000 0000 000000
2016-06-12 10:00:50,0.01,1.24,0.00,25.12,28.80,31.51,14.31,45.43,1014.98,2029.99,3043.10,2794.00,3152.86,599.91,590.75,46.38,0000 0000 0000 0000 000000
2016-06-12 10:05:51,0.00,1.24,0.00,25.12,28.80,31.50,14.36,45.63,1015.12,2029.99,3043.03,2794.00,3152.55,599.96,590.85,46.43,0000 0000 0000 0000 000000
2016-06-12 10:10:53,0.00,1.24,0.00,25.10,28.80,31.51,14.38,45.66,1015.33,2029.98,3043.01,2794.00,3152.29,600.14,591.23,46.48,0000 0000 0000 0000 000000
2016-06-12 10:15:54,0.00,1.24,0.00,25.10,28.80,31.53,14.36,45.58,1015.64,2029.98,3043.00,2793.97,3152.08,599.87,591.08,46.53,0000 0000 0000 0000 000000
2016-06-12 10:20:56,0.00,1.24,0.00,25.10,28.80,31.54,14.31,45.27,1015.64,2029.98,3042.97,2793.98,3152.01,600.00,591.24,46.58,0000 0000 0000 0000 000000
2016-06-12 10:25:57,0.00,1.24,0.00,25.08,28.81,31.55,14.35,45.66,1015.39,2029.98,3042.93,2793.94,3152.00,600.00,591.21,46.63,0000 0000 0000 0000 000000
2016-06-12 10:30:58,0.00,1.24,0.00,25.07,28.82,31.56,14.35,45.40,1015.17,2029.97,3042.90,2793.92,3152.00,600.05,591.13,46.68,0000 0000 0000 0000 000000
2016-06-12 10:35:59,0.01,1.24,0.00,25.07,28.82,31.57,14.31,45.33,1015.15,2029.98,3042.34,2793.72,3151.99,599.93,590.97,46.73,0000 0000 0000 0000 000000
2016-06-12 10:41:01,0.01,1.24,0.00,25.05,28.82,31.58,14.37,45.47,1015.15,2029.97,3042.06,2793.44,3151.98,600.09,591.20,46.78,0000 0000 0000 0000 000000
2016-06-12 10:46:02,0.00,1.24,0.00,25.05,28.82,31.57,14.27,45.47,1015.15,2029.96,3042.01,2793.30,3151.89,599.86,590.82,46.83,0000 0000 0000 0000 000000
2016-06-12 10:51:03,0.01,1.24,0.00,25.04,28.82,31.57,14.26,45.41,1014.92,2029.94,3042.00,2793.05,3151.44,599.91,590.90,46.88,0000 0000 0000 0000 000000
2016-06-12 10:56:04,0.01,1.24,0.00,25.03,28.83,31.59,14.25,45.21,1015.02,2029.93,3041.97,2793.02,3151.16,600.13,591.12,46.93,0000 0000 0000 0000 000000
2016-06-12 11:01:05,-0.00,1.24,0.00,25.01,28.84,31.59,14.38,45.62,1015.08,2029.89,3041.94,2793.00,3151.03,599.97,591.09,46.98,0000 0000 0000 0000 000000
2016-06-12 11:06:06,0.00,1.24,0.00,25.01,28.85,31.59,14.36,45.72,1015.15,2029.86,3041.58,2793.00,3151.00,600.17,591.31,47.03,0000 0000 0000 0000 000000
2016-06-12 11:11:07,0.01,1.24,0.00,24.99,28.85,31.61,14.36,45.72,1015.15,2029.92,3041.31,2793.00,3151.00,599.99,591.26,47.08,0000 0000 0000 0000 000000
2016-06-12 11:16:08,-0.01,1.24,0.00,24.97,28.85,31.61,14.40,45.75,1015.13,2029.82,3041.06,2793.00,3151.00,599.84,591.02,47.13,0000 0000 0000 0000 000000
2016-06-12 11:21:09,0.01,1.24,0.00,24.96,28.85,31.62,14.29,45.44,1015.13,2029.89,3041.02,2793.00,3151.00,599.73,591.27,47.18,0000 0000 0000 0000 000000
2016-06-12 11:26:11,0.00,1.24,0.00,24.96,28.85,31.60,14.37,45.30,1014.98,2029.93,3041.00,2793.00,3150.99,599.80,590.94,47.23,0000 0000 0000 0000 000000
2016-06-12 11:31:12,0.00,1.24,0.00,24.93,28.85,31.63,14.33,45.38,1015.16,2029.97,3041.00,2793.00,3150.99,599.85,591.24,47.29,0000 0000 0000 0000 000000
2016-06-12 11:36:13,-0.00,1.24,0.00,24.92,28.85,31.63,14.38,45.56,1015.36,2029.96,3041.00,2793.00,3150.99,600.10,591.53,47.34,0000 0000 0000 0000 000000
2016-06-12 11:41:14,0.00,1.24,0.00,24.91,28.85,31.65,14.43,45.73,1015.25,2029.96,3041.00,2793.00,3150.98,599.83,591.30,47.39,0000 0000 0000 0000 000000
2016-06-12 11:46:16,-0.00,1.24,0.00,24.89,28.85,31.64,14.32,45.26,1015.19,2029.98,3041.00,2793.00,3150.95,600.11,591.54,47.44,0000 0000 0000 0000 000000
2016-06-12 11:51:17,0.00,1.24,0.00,24.87,28.85,31.61,14.37,45.51,1015.29,2029.96,3040.99,2792.99,3150.92,600.36,591.90,47.49,0000 0000 0000 0000 000000
2016-06-12 11:56:19,0.00,1.24,0.00,24.85,28.84,31.63,14.32,45.34,1015.56,2029.96,3040.85,2792.98,3150.79,599.43,591.30,47.54,0000 0000 0000 0000 000000
2016-06-12 12:01:20,0.00,1.25,0.00,24.85,28.84,31.62,14.39,45.52,1015.55,2029.97,3040.72,2792.99,3150.66,599.43,591.15,47.59,0000 0000 0000 0000 000000
2016-06-12 12:06:21,-0.00,1.25,0.00,24.83,28.83,31.63,14.41,45.49,1015.54,2029.97,3040.92,2792.99,3150.85,600.11,591.84,47.64,0000 0000 0000 0000 000000
2016-06-12 12:11:22,-0.00,1.24,0.00,24.81,28.82,31.63,14.44,45.58,1015.57,2029.97,3040.90,2792.99,3150.80,600.69,592.40,47.69,0000 0000 0000 0000 000000
2016-06-12 12:16:23,-0.00,1.25,0.00,24.80,28.82,31.63,14.31,45.44,1015.18,2029.98,3040.90,2792.99,3150.75,600.14,592.08,47.74,0000 0000 0000 0000 000000
2016-06-12 12:21:25,0.01,1.25,0.00,24.80,28.82,31.63,14.38,45.44,1015.16,2029.95,3040.73,2792.99,3150.53,599.91,591.45,47.79,0000 0000 0000 0000 000000
2016-06-12 12:26:26,-0.00,1.25,0.00,24.78,28.82,31.63,14.37,45.60,1015.15,2029.98,3040.82,2792.99,3150.68,600.19,591.82,47.84,0000 0000 0000 0000 000000
2016-06-12 12:31:28,0.01,1.25,0.00,24.78,28.82,31.63,14.33,45.70,1015.15,2029.97,3040.66,2792.99,3150.58,599.83,591.55,47.89,0000 0000 0000 0000 000000
2016-06-12 12:36:29,0.01,1.25,0.00,24.76,28.81,31.63,14.30,45.58,1015.15,2029.99,3040.40,2792.99,3150.49,599.62,591.38,47.94,0000 0000 0000 0000 000000
2016-06-12 12:41:30,0.00,1.25,0.00,24.73,28.80,31.63,14.38,45.51,1015.15,2029.99,3040.42,2792.99,3150.59,600.31,591.87,47.99,0000 0000 0000 0000 000000
2016-06-12 12:46:31,0.01,1.25,0.00,24.72,28.80,31.63,14.28,45.18,1015.14,2029.98,3040.18,2792.98,3150.38,599.68,591.55,48.04,0000 0000 0000 0000 000000
2016-06-12 12:51:33,0.00,1.25,0.00,24.71,28.80,31.63,14.43,45.53,1015.08,2029.99,3040.05,2792.99,3150.18,600.43,592.05,48.09,0000 0000 0000 0000 000000
2016-06-12 12:56:34,0.00,1.25,0.00,24.68,28.80,31.64,14.32,45.27,1014.85,2029.98,3040.06,2792.99,3150.23,599.53,591.21,48.14,0000 0000 0000 0000 000000